Weather History for PAJN - June, 2013

Change the Weather History Date:

Wednesday, June 19, 2013

  Actual Average Record
Temperature  
Mean Temperature 64 °F 55 °F  
Max Temperature 77 °F 63 °F 85 °F (2004)
Min Temperature 51 °F 47 °F 36 °F (1966)
Degree Days  
Heating Degree Days 1 10  
Month to date heating degree days 174 209  
Since 1 June heating degree days 174 209  
Since 1 July heating degree days 8710 8245  
Cooling Degree Days 0 0  
Month to date cooling degree days 7 0  
Year to date cooling degree days 7 0  
Since 1 June cooling degree days 7 0  
Growing Degree Days 14 (Base 50)    
Moisture  
Dew Point 50 °F    
Average Humidity 62    
Maximum Humidity 83    
Minimum Humidity 41    
Precipitation  
Precipitation 0.00 in 0.10 in 0.67 in (1945)
Month to date precipitation 2.23 2.02  
Year to date precipitation 30.60 21.62  
Sea Level Pressure  
Sea Level Pressure 29.97 in    
Wind  
Wind Speed 6 mph (SW)    
Max Wind Speed 15 mph    
Max Gust Speed 20 mph    
Visibility 10 miles    
Events Rain    
T = Trace of Precipitation, MM = Missing Value Source: NWS Daily Summary

Daily Weather History Graph

Daily Weather History Graph

Search for Another Location

Airport or City:

Trip Planner

Search our weather history database for the weather conditions in past years. The results will help you decide how hot, cold, wet, or windy it might be!

Date:

Astronomy

Jun. 19, 2013 Rise Set
Actual Time 3:51 AM AKDT 10:08 PM AKDT
Civil Twilight 2:31 AM AKDT 11:27 PM AKDT
Nautical Twilight Sun does not set Sun does not set
Astronomical Twilight Sun does not set Sun does not set
Moon 5:28 PM AKDT (6/19) 1:32 AM AKDT (6/19)
Length of Visible Light 20h 55m
Length of Day
18h 17m
Waxing Gibbous, 82% of the Moon is Illuminated
Jun 19
Waxing Gibbous
Jun 23
Full
Jun 29
Last Quarter
Jul 7
New
Jul 15
First Quarter

Hourly Weather History & Observations

Time (AKDT) Temp. Dew Point Humidity Pressure Visibility Wind Dir Wind Speed Gust Speed Precip Events Conditions
12:53 AM 57.9 °F 48.0 °F 70% 29.99 in 10.0 mi Calm Calm - N/A   Mostly Cloudy
1:53 AM 57.9 °F 48.0 °F 70% 30.00 in 10.0 mi SSW 3.5 mph - N/A   Mostly Cloudy
2:53 AM 57.0 °F 50.0 °F 77% 29.99 in 10.0 mi Calm Calm - N/A   Mostly Cloudy
3:53 AM 53.1 °F 48.9 °F 86% 30.00 in 10.0 mi Calm Calm - N/A   Mostly Cloudy
4:53 AM 53.1 °F 48.9 °F 86% 30.00 in 10.0 mi Calm Calm - N/A   Mostly Cloudy
5:53 AM 55.9 °F 50.0 °F 80% 30.00 in 10.0 mi Calm Calm - N/A   Mostly Cloudy
6:53 AM 57.0 °F 51.1 °F 81% 30.00 in 10.0 mi WSW 3.5 mph - N/A   Mostly Cloudy
7:53 AM 59.0 °F 51.1 °F 75% 29.99 in 10.0 mi SW 4.6 mph - N/A   Mostly Cloudy
8:53 AM 60.1 °F 50.0 °F 69% 29.99 in 10.0 mi WSW 8.1 mph - N/A   Scattered Clouds
9:53 AM 62.1 °F 50.0 °F 65% 29.98 in 10.0 mi WSW 9.2 mph - N/A   Scattered Clouds
10:53 AM 64.9 °F 48.9 °F 56% 29.97 in 10.0 mi WSW 11.5 mph - N/A   Partly Cloudy
11:53 AM 66.9 °F 50.0 °F 54% 29.96 in 10.0 mi WSW 11.5 mph - N/A   Scattered Clouds
12:53 PM 70.0 °F 50.0 °F 49% 29.96 in 10.0 mi WSW 10.4 mph - N/A   Scattered Clouds
1:53 PM 73.9 °F 51.1 °F 45% 29.96 in 10.0 mi WSW 10.4 mph - N/A   Scattered Clouds
2:53 PM 75.9 °F 50.0 °F 40% 29.94 in 10.0 mi WSW 12.7 mph - N/A   Scattered Clouds
3:53 PM 77.0 °F 50.0 °F 39% 29.93 in 10.0 mi WSW 12.7 mph - N/A   Mostly Cloudy
4:53 PM 73.9 °F 48.9 °F 41% 29.92 in 10.0 mi WSW 10.4 mph - N/A   Mostly Cloudy
5:53 PM 73.0 °F 51.1 °F 46% 29.92 in 10.0 mi WSW 8.1 mph - N/A   Mostly Cloudy
6:53 PM 70.0 °F 51.1 °F 51% 29.93 in 10.0 mi ESE 9.2 mph - N/A   Mostly Cloudy
7:53 PM 68.0 °F 51.1 °F 55% 29.95 in 10.0 mi East 5.8 mph - 0.00 in Rain Light Rain
8:53 PM 63.0 °F 52.0 °F 67% 29.96 in 10.0 mi ENE 8.1 mph - 0.00 in Rain Light Rain
9:53 PM 61.0 °F 51.1 °F 70% 29.98 in 10.0 mi ENE 6.9 mph - 0.00 in Rain Light Rain
10:53 PM 59.0 °F 51.1 °F 75% 29.99 in 10.0 mi East 5.8 mph - 0.00 in   Overcast
11:53 PM 60.1 °F 53.1 °F 78% 29.99 in 10.0 mi Calm Calm - 0.00 in Rain Light Rain